This demonstration page uses our WeatherBlox Daily Observations layout. Learn more.

Left ArrowRight Arrow

40.92945, -100.16068

Hourly Observations for September 17, 2020

Temp ( °F °C ) Dew Point ( °F °C ) Humidity (%) Winds ( mph kmh ) Pressure ( in mb ) Visibility ( mi km ) Precip ( " mm )
12:15 am 00:15 Clear 51 10.5 48 8.8 89 89 NNE 5 7 30.27 1025 10 16 0.00 0.00
12:35 am 00:35 Clear 50 10.1 47 8.5 90 90 NNE 3 6 30.27 1025 10 16 0.00 0.00
12:55 am 00:55 Clear 50 10.1 47 8.3 89 89 NE 3 6 30.26 1025 10 16 0.00 0.00
1:15 am 01:15 Clear 49 9.7 47 8.1 90 90 ENE 3 6 30.26 1025 10 16 0.00 0.00
1:35 am 01:35 Clear 50 9.8 47 8.2 90 90 Calm 30.26 1025 10 16 0.00 0.00
1:55 am 01:55 Clear 47 8.2 45 7 92 92 Calm 30.28 1025 10 16 0.00 0.00
2:15 am 02:15 Clear 47 8.1 45 7 93 93 Calm 30.28 1025 10 16 0.00 0.00
2:35 am 02:35 Clear 47 8.2 45 7 92 92 Calm 30.27 1025 10 16 0.00 0.00
2:55 am 02:55 Clear 46 7.8 45 7 95 95 Calm 30.27 1025 10 16 0.00 0.00
3:15 am 03:15 Clear 46 8 45 7 93 93 Calm 30.27 1025 7 11 0.00 0.00
3:35 am 03:35 Clear 45 7.2 43 6.2 93 93 W 5 7 30.28 1025 10 16 0.00 0.00
3:55 am 03:55 Clear 45 7.1 43 6.3 95 95 WNW 3 6 30.28 1025 7 11 0.00 0.00
4:15 am 04:15 Clear 45 7.3 44 6.6 95 95 NNW 3 6 30.28 1025 7 11 0.00 0.00
4:35 am 04:35 Clear 45 7 43 6.1 94 94 Calm 30.28 1025 7 11 0.00 0.00
4:55 am 04:55 Clear 44 6.7 43 6 95 95 Calm 30.28 1025 7 11 0.00 0.00
5:15 am 05:15 Clear 44 6.5 42 5.7 95 95 NW 3 6 30.28 1026 7 11 0.00 0.00
5:35 am 05:35 Clear 43 6 41 5.2 95 95 Calm 30.29 1026 7 11 0.00 0.00
5:55 am 05:55 Clear 43 6.2 42 5.5 95 95 Calm 30.30 1026 7 11 0.00 0.00
6:15 am 06:15 Clear 43 6.3 42 5.5 95 95 Calm 30.29 1026 7 11 0.00 0.00
6:35 am 06:35 Clear 43 6.2 42 5.5 95 95 Calm 30.29 1026 7 11 0.00 0.00
6:55 am 06:55 Clear 43 6.2 42 5.4 95 95 Calm 30.29 1026 7 11 0.00 0.00
7:15 am 07:15 Clear 43 6 41 5.1 94 94 Calm 30.29 1026 7 11 0.00 0.00
7:35 am 07:35 Sunny 43 6.1 41 5.2 94 94 Calm 30.30 1026 7 11 0.00 0.00
7:55 am 07:55 Sunny with Mist and Fog 43 6.3 42 5.6 95 95 Calm 30.30 1026 5 8 0.00 0.00
8:15 am 08:15 Sunny with Mist and Fog 44 6.6 42 5.7 94 94 Calm 30.29 1026 5 8 0.00 0.00
8:35 am 08:35 Sunny 45 7.2 43 6.3 94 94 Calm 30.29 1026 7 11 0.00 0.00
8:55 am 08:55 Sunny 46 8 44 6.7 92 92 Calm 30.28 1025 7 11 0.00 0.00
9:15 am 09:15 Sunny 48 9 46 7.6 91 91 Calm 30.27 1025 7 11 0.00 0.00
9:35 am 09:35 Sunny 50 10 47 8.4 90 90 Calm 30.27 1025 7 11 0.00 0.00
9:55 am 09:55 Sunny 52 11.2 48 8.8 85 85 Calm 30.26 1025 7 11 0.00 0.00
10:15 am 10:15 Sunny 55 12.6 48 8.9 78 78 SE 3 6 30.25 1024 10 16 0.00 0.00
10:35 am 10:35 Sunny 56 13.3 48 9 75 75 Calm 30.24 1024 10 16 0.00 0.00
10:55 am 10:55 Sunny 58 14.6 50 9.8 73 73 S 5 7 30.23 1024 7 11 0.00 0.00
11:15 am 11:15 Sunny 60 15.8 50 10.1 69 69 SSE 7 11 30.21 1023 10 16 0.00 0.00
11:35 am 11:35 Sunny 63 17.3 51 10.3 64 64 SSE 8 13 30.19 1022 10 16 0.00 0.00
11:55 am 11:55 Sunny 66 18.9 50 10 56 56 S 9 15 30.16 1021 10 16 0.00 0.00
12:15 pm 12:15 Sunny 68 20 49 9.6 51 51 S 15 24 30.15 1021 10 16 0.00 0.00
12:35 pm 12:35 Sunny 69 20.5 50 10 51 51 S 13 20 30.14 1021 10 16 0.00 0.00
12:55 pm 12:55 Sunny 69 20.5 50 10.1 51 51 S 12 19 30.13 1020 10 16 0.00 0.00
1:15 pm 13:15 Sunny 71 21.4 50 10.1 49 49 SSW 10 17 30.12 1020 7 11 0.00 0.00
1:35 pm 13:35 Sunny 71 21.6 50 10 48 48 S 12 19 30.11 1020 10 16 0.00 0.00
1:55 pm 13:55 Sunny 72 22.2 50 10 46 46 S 12 19 30.09 1019 7 11 0.00 0.00
2:15 pm 14:15 Sunny 73 22.7 50 10.2 45 45 SSW 9 15 30.09 1019 7 11 0.00 0.00
2:35 pm 14:35 Sunny 74 23.1 50 10.2 44 44 S 10 17 30.08 1018 7 11 0.00 0.00
2:55 pm 14:55 Sunny 74 23.3 51 10.6 45 45 S 9 15 30.06 1018 7 11 0.00 0.00
3:15 pm 15:15 Sunny 75 23.9 51 10.5 43 43 S 9 15 30.04 1017 7 11 0.00 0.00
3:35 pm 15:35 Sunny 76 24.3 51 10.5 42 42 SSW 14 22 30.04 1017 7 11 0.00 0.00
3:55 pm 15:55 Sunny 76 24.7 51 10.7 41 41 S 10 17 30.02 1017 7 11 0.00 0.00
4:15 pm 16:15 Sunny 77 25 51 10.7 41 41 S 8 13 30.01 1016 7 11 0.00 0.00
4:35 pm 16:35 Sunny 77 25 51 10.8 41 41 S 13 20 30.00 1016 7 11 0.00 0.00
4:55 pm 16:55 Sunny 77 24.9 52 10.9 41 41 S 12 19 30.00 1016 7 11 0.00 0.00
5:15 pm 17:15 Sunny 77 25 52 10.9 41 41 S 12 19 30.00 1016 7 11 0.00 0.00
5:35 pm 17:35 Hazy 77 24.9 52 10.9 41 41 S 9 15 29.99 1016 5 8 0.00 0.00
5:55 pm 17:55 Hazy 76 24.7 52 11 42 42 S 10 17 29.99 1016 5 8 0.00 0.00
6:15 pm 18:15 Hazy 76 24.5 52 11.2 43 43 S 8 13 30.00 1016 5 8 0.00 0.00
6:35 pm 18:35 Hazy 74 23.6 53 11.8 48 48 SSE 6 9 30.01 1016 5 8 0.00 0.00
6:55 pm 18:55 Hazy 73 22.7 53 11.8 50 50 SSE 7 11 30.02 1017 5 8 0.00 0.00
7:15 pm 19:15 Hazy 72 22.1 53 11.6 51 51 SE 8 13 30.02 1017 5 8 0.00 0.00
7:35 pm 19:35 Hazy 70 21.2 53 11.5 54 54 SE 6 9 30.04 1017 5 8 0.00 0.00
7:55 pm 19:55 Hazy 68 20.1 53 11.7 59 59 ESE 6 9 30.05 1018 5 8 0.00 0.00
8:15 pm 20:15 Hazy 65 18.6 53 11.8 65 65 ESE 6 9 30.07 1018 5 8 0.00 0.00
8:35 pm 20:35 Clear 65 18.1 54 12 68 68 ESE 7 11 30.09 1019 7 11 0.00 0.00
8:55 pm 20:55 Clear 65 18.1 54 12 68 68 ESE 7 11 30.10 1019 7 11 0.00 0.00
9:15 pm 21:15 Hazy 63 17 54 12 73 73 E 6 9 30.12 1020 5 8 0.00 0.00
9:35 pm 21:35 Hazy 60 15.4 53 11.8 79 79 E 5 7 30.14 1021 5 8 0.00 0.00
9:55 pm 21:55 Hazy 62 16.5 54 12.1 75 75 ESE 5 7 30.13 1020 5 8 0.00 0.00
10:15 pm 22:15 Hazy 62 16.6 54 12.1 75 75 SE 5 7 30.14 1021 5 8 0.00 0.00
10:35 pm 22:35 Hazy 59 14.8 53 11.7 82 82 SE 3 6 30.16 1021 5 8 0.00 0.00
10:55 pm 22:55 Hazy 59 15.2 54 12 81 81 SE 3 6 30.15 1021 5 8 0.00 0.00
11:15 pm 23:15 Hazy 60 15.3 54 12 81 81 SE 7 11 30.15 1021 5 8 0.00 0.00
11:35 pm 23:35 Hazy 59 15.1 54 12 82 82 SSE 6 9 30.15 1021 5 8 0.00 0.00
11:55 pm 23:55 Hazy 58 14.3 53 11.6 84 84 SSE 6 9 30.17 1022 5 8 0.00 0.00

Powered by AerisWeather